STARLINK-35656, 66391

Orbit data source: Space-Track

STARLINK-35656, 66391 is a payload satellite owned by SpaceX/Seattle (US) in LEO that was launched on Sat, 08 Nov 2025 UTC via an FALCON 9 launch vehicle from the Air Force Eastern Test Range (AFETR). Payload-class satellites include a variety of spacecraft equipped with specific instruments for various scientific and technological missions. These include communications satellites like Starlink; space stations such as the ISS; scientific satellites like the Hubble; Earth observation satellites from companies like Planet Labs, Umbra, and HawkEye 360; GPS; miniature CubeSats for education and research; and military/defense satellites.

Loading next visibility...
Identifier
66391, 2025-257M
Orbit
LEO
Country
Flag of USUS
Related business
Manufacturer
SpaceX/Seattle
Mission
Operational Commercial Communications
Bus & Motor
STARLINK V2MO, Unknown motor
Mass
575 kg wet, ~530 kg dry
Launch date (UTC)
2025-11-08 (7 months ago)
Launch vehicle
FALCON 9
Launch site
Air Force Eastern Test Range (AFETR)
Object type
Payload
Rocket body
Debris
Shape & HBR
Box + 2 Pan, 17.7 m
Radar Cross Section
36.964 m², Large (>1 m²)

Expand to show TLE details & history
Last TLE update: 21 hours ago

TLE from 21 hours ago
0 STARLINK-35656
1 66391U 25257M   26170.97417688  .00017409  00000-0  59829-3 0  9999
2 66391  53.1583 104.7582 0001636 117.6809 242.4358 15.30212225 35455
Epoch: 2026-06-19T23:22Z
TLE epoch observation values (Epoch: 2026-06-19T23:22:48.882Z)
Latitude
-0.00001°
Longitude
-154.14094°
Altitude
476.597 km
Speed
7.628 km/s
True Right ascension
06h 59m 01s
True Declination
0° 00' 00"
Sunlit
Object was in daylight at epoch
Visualization orbit readout
Latitude
Unknown
Longitude
Unknown
Altitude
Unknown
Speed
Unknown
Apparent Right ascension
Unknown
Apparent Declination
Unknown
Sunlit
N/A
Visualization observer readout
Local Sidereal Time
07:17:40
Azimuth
Unknown
Elevation
Unknown
Doppler factor
Unknown
Orbital elements
Apogee altitude
476.557 km
Perigee altitude
474.314 km
Semi-major axis
6,853.572 km
Eccentricity
0.00016
Inclination
53.1583°
RAAN
104.7582°
Arg. of periapsis
117.6809°
True anomaly
242.41918°
Mean anomaly
242.4358°
Eccentric anomaly
242.42749°
Mean motion
3.82532 °/min
Orbital period
94.11 mins
BSTAR
0.00059829
Loading maneuver chart data...
Computing Atmospheric mass density...
Loading historical data...
Loading historical data...
Loading historical data...
Loading historical data...
Loading historical data...
Loading historical data...
Loading historical data...

Documentation

Showing up to 5 results
|